Weather History for KGHW - October, 2011

Change the Weather History Date:

Thursday, October 6, 2011

  Actual Average Record
Temperature  
Mean Temperature 66 °F -  
Max Temperature 80 °F 62 °F 87 °F (1961)
Min Temperature 51 °F 37 °F 24 °F (2001)
Growing Degree Days 16 (Base 50)    
Moisture  
Dew Point 36 °F    
Average Humidity 35    
Maximum Humidity 62    
Minimum Humidity 16    
Precipitation  
Precipitation 0.00 in - - ()
Sea Level Pressure  
Sea Level Pressure 29.97 in    
Wind  
Wind Speed 13 mph (SE)    
Max Wind Speed 29 mph    
Max Gust Speed 37 mph    
Visibility 10 miles    
Events Rain    
Averages and records for this station are not official NWS values.
T = Trace of Precipitation, MM = Missing Value Source: NWS Daily Summary

Daily Weather History Graph

Daily Weather History Graph

Search for Another Location

Airport or City:

Trip Planner

Search our weather history database for the weather conditions in past years. The results will help you decide how hot, cold, wet, or windy it might be!

Date:

Astronomy

Oct. 06, 2011 Rise Set
Actual Time 7:25 AM CDT 6:52 PM CDT
Civil Twilight 6:55 AM CDT 7:22 PM CDT
Nautical Twilight 6:21 AM CDT 7:56 PM CDT
Astronomical Twilight 5:46 AM CDT 8:31 PM CDT
Moon 4:19 PM CDT 2:00 AM CDT
Length of Visible Light 12h 26m
Length of Day
11h 26m
Waxing Gibbous, 75% of the Moon is Illuminated
Oct 6
Waxing Gibbous
Oct 11
Full
Oct 19
Last Quarter
Oct 26
New
Nov 2
First Quarter

Hourly Weather History & Observations

Time (CDT) Temp. Dew Point Humidity Pressure Visibility Wind Dir Wind Speed Gust Speed Precip Events Conditions
12:13 AM 66.2 °F 37.4 °F 35% 29.99 in 10.0 mi SSE 11.5 mph - N/A   Clear
12:34 AM 66.2 °F 37.4 °F 35% 29.99 in 10.0 mi SE 11.5 mph - N/A   Clear
12:53 AM 64.4 °F 37.4 °F 37% 30.00 in 10.0 mi SE 9.2 mph - N/A   Clear
1:14 AM 62.6 °F 37.4 °F 39% 30.00 in 10.0 mi SE 8.1 mph - N/A   Clear
1:33 AM 60.8 °F 39.2 °F 45% 30.00 in 10.0 mi SE 9.2 mph - N/A   Clear
1:54 AM 60.8 °F 37.4 °F 42% 30.00 in 10.0 mi SE 8.1 mph - N/A   Clear
2:14 AM 60.8 °F 37.4 °F 42% 30.00 in 10.0 mi SE 9.2 mph - N/A   Clear
2:34 AM 60.8 °F 39.2 °F 45% 30.00 in 10.0 mi SE 8.1 mph - N/A   Clear
2:54 AM 59.0 °F 39.2 °F 48% 30.00 in 10.0 mi SE 9.2 mph - N/A   Clear
3:14 AM 57.2 °F 39.2 °F 51% 30.00 in 10.0 mi SE 8.1 mph - N/A   Clear
3:34 AM 55.4 °F 39.2 °F 54% 30.00 in 10.0 mi ESE 8.1 mph - N/A   Clear
3:54 AM 55.4 °F 39.2 °F 54% 30.00 in 10.0 mi ESE 8.1 mph - N/A   Clear
4:14 AM 55.4 °F 39.2 °F 54% 30.00 in 10.0 mi ESE 9.2 mph - N/A   Clear
4:34 AM 55.4 °F 39.2 °F 54% 30.00 in 10.0 mi ESE 10.4 mph - N/A   Clear
4:54 AM 55.4 °F 39.2 °F 54% 30.00 in 10.0 mi SE 8.1 mph - N/A   Clear
5:14 AM 55.4 °F 39.2 °F 54% 30.00 in 10.0 mi ESE 9.2 mph - N/A   Clear
5:34 AM 53.6 °F 39.2 °F 58% 30.00 in 10.0 mi SE 8.1 mph - N/A   Clear
5:53 AM 53.6 °F 39.2 °F 58% 30.00 in 10.0 mi SE 8.1 mph - N/A   Clear
6:14 AM 53.6 °F 39.2 °F 58% 30.01 in 10.0 mi SE 8.1 mph - N/A   Clear
6:33 AM 51.8 °F 39.2 °F 62% 30.00 in 10.0 mi ESE 6.9 mph - N/A   Clear
6:54 AM 51.8 °F 39.2 °F 62% 30.00 in 10.0 mi SE 6.9 mph - N/A   Clear
7:13 AM 53.6 °F 39.2 °F 58% 30.00 in 10.0 mi SE 8.1 mph - N/A   Clear
7:53 AM 53.6 °F 39.2 °F 58% 30.01 in 10.0 mi ESE 9.2 mph - N/A   Clear
8:14 AM 53.6 °F 39.2 °F 58% 30.01 in 10.0 mi ESE 6.9 mph - N/A   Clear
8:34 AM 55.4 °F 39.2 °F 54% 30.01 in 10.0 mi ESE 9.2 mph - N/A   Clear
8:53 AM 57.2 °F 39.2 °F 51% 30.01 in 10.0 mi ESE 9.2 mph - N/A   Clear
9:14 AM 60.8 °F 39.2 °F 45% 30.01 in 10.0 mi SE 10.4 mph - N/A   Clear
9:33 AM 62.6 °F 39.2 °F 42% 30.01 in 10.0 mi SE 11.5 mph - N/A   Clear
9:54 AM 66.2 °F 39.2 °F 37% 30.00 in 10.0 mi SE 11.5 mph - N/A   Clear
10:14 AM 68.0 °F 37.4 °F 33% 30.00 in 10.0 mi SE 15.0 mph 19.6 mph N/A   Clear
10:34 AM 69.8 °F 37.4 °F 31% 30.00 in 10.0 mi SSE 17.3 mph 23.0 mph N/A   Clear
10:54 AM 71.6 °F 37.4 °F 29% 29.99 in 10.0 mi SE 16.1 mph 20.7 mph N/A   Clear
11:14 AM 73.4 °F 37.4 °F 27% 29.99 in 10.0 mi SSE 13.8 mph 24.2 mph N/A   Clear
11:34 AM 73.4 °F 37.4 °F 27% 29.99 in 10.0 mi SE 16.1 mph 23.0 mph N/A   Clear
11:54 AM 75.2 °F 37.4 °F 25% 29.98 in 10.0 mi SSE 20.7 mph 27.6 mph N/A   Clear
12:13 PM 75.2 °F 37.4 °F 25% 29.98 in 10.0 mi SSE 23.0 mph 28.8 mph N/A   Clear
12:34 PM 75.2 °F 35.6 °F 24% 29.98 in 10.0 mi SE 20.7 mph 28.8 mph N/A   Clear
12:53 PM 78.8 °F 35.6 °F 21% 29.97 in 10.0 mi SSE 21.9 mph 29.9 mph N/A   Clear
1:14 PM 78.8 °F 35.6 °F 21% 29.96 in 10.0 mi SE 26.5 mph 32.2 mph N/A   Clear
1:33 PM 78.8 °F 35.6 °F 21% 29.96 in 10.0 mi SE 25.3 mph 33.4 mph N/A   Clear
1:54 PM 78.8 °F 35.6 °F 21% 29.96 in 10.0 mi SSE 27.6 mph 33.4 mph N/A   Clear
2:13 PM 78.8 °F 35.6 °F 21% 29.95 in 10.0 mi SSE 26.5 mph 33.4 mph N/A   Clear
2:34 PM 80.6 °F 33.8 °F 18% 29.95 in 10.0 mi SSE 24.2 mph 33.4 mph N/A   Clear
3:13 PM 78.8 °F 33.8 °F 20% 29.93 in 10.0 mi SSE 21.9 mph 33.4 mph N/A   Clear
3:34 PM 80.6 °F 32.0 °F 17% 29.92 in 10.0 mi SE 21.9 mph 26.5 mph N/A   Clear
3:54 PM 80.6 °F 30.2 °F 16% 29.92 in 10.0 mi SSE 25.3 mph 36.8 mph N/A   Clear
4:14 PM 80.6 °F 30.2 °F 16% 29.92 in 10.0 mi SSE 24.2 mph 34.5 mph N/A   Clear
4:34 PM 78.8 °F 30.2 °F 17% 29.91 in 10.0 mi SE 28.8 mph 34.5 mph N/A   Clear
4:54 PM 78.8 °F 30.2 °F 17% 29.91 in 10.0 mi SE 20.7 mph 33.4 mph N/A   Scattered Clouds
5:13 PM 77.0 °F 30.2 °F 18% 29.90 in 10.0 mi SE 19.6 mph 27.6 mph N/A   Scattered Clouds
5:34 PM 75.2 °F 35.6 °F 24% 29.90 in 10.0 mi SE 16.1 mph 23.0 mph N/A Rain Rain
5:53 PM 75.2 °F 32.0 °F 21% 29.90 in 10.0 mi SE 16.1 mph 21.9 mph N/A   Scattered Clouds
6:14 PM 75.2 °F 30.2 °F 19% 29.89 in 10.0 mi SE 15.0 mph 19.6 mph N/A   Clear
6:33 PM 73.4 °F 33.8 °F 23% 29.89 in 10.0 mi ESE 12.7 mph - N/A Rain Light Rain
7:14 PM 73.4 °F 32.0 °F 22% 29.89 in 10.0 mi ESE 12.7 mph - N/A   Scattered Clouds
7:34 PM 71.6 °F 33.8 °F 25% 29.89 in 10.0 mi ESE 11.5 mph - N/A   Scattered Clouds
7:54 PM 71.6 °F 30.2 °F 22% 29.90 in 10.0 mi SE 17.3 mph - N/A   Clear
8:34 PM 71.6 °F 32.0 °F 23% 29.89 in 10.0 mi SE 20.7 mph 26.5 mph N/A   Clear
8:54 PM 71.6 °F 33.8 °F 25% 29.90 in 10.0 mi SE 21.9 mph 28.8 mph N/A   Clear
9:14 PM 71.6 °F 33.8 °F 25% 29.89 in 10.0 mi SE 21.9 mph 27.6 mph N/A   Clear
9:33 PM 71.6 °F 33.8 °F 25% 29.89 in 10.0 mi SE 20.7 mph 29.9 mph N/A   Clear
9:54 PM 69.8 °F 35.6 °F 28% 29.89 in 10.0 mi SE 23.0 mph 31.1 mph N/A   Clear
10:13 PM 69.8 °F 35.6 °F 28% 29.90 in 10.0 mi SE 20.7 mph 28.8 mph N/A   Clear
10:34 PM 69.8 °F 35.6 °F 28% 29.90 in 10.0 mi SE 19.6 mph 27.6 mph N/A   Clear
10:54 PM 69.8 °F 37.4 °F 31% 29.90 in 10.0 mi SE 20.7 mph 29.9 mph N/A   Clear
11:14 PM 69.8 °F 37.4 °F 31% 29.90 in 10.0 mi SE 20.7 mph 29.9 mph N/A   Clear
11:34 PM 69.8 °F 39.2 °F 33% 29.90 in 10.0 mi SE 21.9 mph 26.5 mph N/A   Clear
11:54 PM 68.0 °F 39.2 °F 35% 29.90 in 10.0 mi SE 18.4 mph 26.5 mph N/A   Clear